Back to catalog

COSMOS 735

AliveMilitaryLEO
NORAD 7824·PAYLOAD·🇷🇺 Russia

Launched May 28, 1975 from Plesetsk Cosmodrome

Loading…

Next Passes (next 24 hours)

TLE

FreshSource: Space-Track

Epoch: Sep 14, 2026, 14:52 UTC

1 07824U 75045D   26257.61971336 -.00000017  00000-0 -53424-5 0  9993
2 07824  74.0163 216.9567 0007264 139.2479 333.0347 12.49370719339757

Track COSMOS 735 in real time with AllMySat

Download on the App Store